#timestamp,LO_Frequency,Hit,StdDev 
1625403615.6,286046999.9,N
1625403635.5,286047000.0,N
1625403655.3,286047002.8,N
1625403675.2,286047002.3,N
1625403695.9,286046999.8,N
1625403715.7,286046999.7,N
1625403735.6,286047000.4,N
1625403755.4,286047000.5,N
1625403775.2,286046999.8,N
1625403795.1,286047000.0,N
1625403796.0,286047000.0,N
1625403815.8,286047000.1,N
1625403835.7,286047002.2,N
1625403855.5,286047001.5,N
1625403875.3,286047001.3,N
1625403895.2,286047001.7,N
1625403915.9,286047004.3,Y
1625403935.7,286047003.0,P
1625403955.6,286047006.0,P
1625403975.4,286047003.4,N
1625403995.3,286047005.9,N
1625404015.1,286047006.0,N
1625404016.0,286047006.0,N
1625404035.8,286047004.7,N
1625404055.7,286047005.9,N
1625404075.5,286047005.7,N
1625404095.3,286047005.9,Y
1625404115.2,286047000.8,P
1625404135.0,286046998.8,N
1625404135.9,286046998.8,N
1625404185.8,286046998.1,E
1625404195.7,286046999.7,N
1625404215.5,286047002.0,P
1625404235.4,286047004.4,P
1625404255.2,286047004.0,N
1625404275.1,286047003.6,N
1625404276.0,286047003.6,N
1625404295.8,286047005.5,Y
1625404315.6,286047002.7,P
1625404335.5,286047002.4,P
1625404355.3,286047000.3,N
1625404375.1,286047000.5,N
1625404395.9,286046998.2,N
1625404415.7,286047000.1,N
1625404435.6,286047000.3,N
1625404455.4,286047002.8,N
1625404475.2,286047000.6,N
1625404495.1,286047000.9,N
1625404496.0,286047000.9,N
1625404515.8,286047002.8,N
1625404535.6,286047000.9,N
1625404555.5,286047000.6,N
1625404575.3,286046999.9,N
1625404595.2,286047000.1,N
1625404615.9,286046999.9,N
1625404635.7,286047002.3,N
1625404655.6,286047001.6,N
1625404675.4,286047002.0,N
1625404695.2,286047001.4,N
1625404715.1,286047004.0,Y
1625404716.0,286047004.0,P
1625404735.8,286047004.4,P
1625404755.7,286047001.3,N
1625404775.5,286047003.8,N
1625404795.3,286047004.1,N
1625404815.2,286047004.1,N
1625404835.0,286047003.2,N
1625404835.9,286047003.2,N
1625404855.7,286047003.2,N
1625404875.6,286047004.2,Y
1625404895.4,286047002.8,P
1625404915.3,286046999.7,N
1625404935.1,286047002.7,N
1625404936.0,286047002.7,N
1625404955.8,286047001.5,N
1625404975.7,286047002.6,N
1625404995.5,286047000.2,N
1625405015.3,286047002.2,N
1625405035.2,286047002.0,N
1625405055.0,286047001.7,N
1625405055.9,286047001.7,N
1625405075.8,286047002.5,N
1625405095.6,286047002.3,N
1625405115.4,286047000.1,N
1625405135.3,286046999.8,N
1625405155.1,286047001.9,N
1625405175.8,286047002.1,N
1625405195.7,286047001.8,N
1625405215.5,286047003.6,Y
1625405235.4,286046999.7,P
1625405255.2,286047000.6,N
1625405275.0,286047002.8,P
1625405275.9,286047002.8,N
1625405295.8,286047000.3,N
1625405315.6,286047001.1,N
1625405335.4,286047000.5,N
1625405355.3,286047001.2,N
1625405375.1,286046998.1,N
1625405395.9,286047001.2,N
1625405415.7,286047001.1,N
1625405435.5,286046998.2,N
1625405455.4,286046998.2,N
1625405475.2,286046998.1,N
1625405495.0,286047000.7,N
1625405495.9,286047000.7,N
1625405515.8,286046998.3,N
1625405535.6,286046999.6,N
1625405555.5,286046998.8,N
1625405575.3,286046998.2,N
1625405595.1,286046998.8,N
1625405615.9,286046999.6,N
1625405635.7,286046997.0,N
1625405655.5,286046997.5,N
1625405675.4,286046997.1,N
1625405695.2,286047001.2,N
1625405715.1,286046998.4,N
1625405716.0,286046998.4,N
1625405735.8,286046998.9,N
1625405755.6,286046997.0,N
1625405775.5,286046996.5,N
1625405795.3,286046996.6,N
1625405815.2,286046997.7,N
1625405835.0,286046995.6,N
1625405835.9,286046995.6,N
1625405855.7,286046995.6,N
1625405875.6,286046995.5,N
1625405895.4,286046995.3,N
1625405915.3,286046993.7,Y
1625405935.1,286046995.0,P
1625405955.8,286046995.0,P
1625405975.7,286046996.3,N
1625405995.5,286046995.9,Y
1625406015.4,286047001.2,P
1625406035.2,286046998.9,N
1625406055.0,286046999.2,N
1625406055.9,286046999.2,N
1625406075.8,286046995.0,Y
1625406095.6,286046997.9,P
1625406115.4,286046996.8,P
1625406135.3,286046999.4,N
1625406155.1,286046999.5,N
1625406175.9,286046999.4,N
1625406195.7,286047011.9,Y
1625406215.5,286046998.3,P
1625406235.4,286046998.6,P
1625406255.2,286047002.4,P
1625406275.1,286047002.3,N
1625406276.0,286047002.3,N
1625406295.8,286047002.5,N
1625406315.6,286047001.0,N
1625406335.5,286047000.5,N
1625406355.3,286047000.1,N
1625406375.1,286047002.8,N
1625406395.9,286047001.0,N
1625406415.7,286047000.6,N
1625406435.6,286047000.9,N
1625406455.4,286047001.0,N
1625406475.2,286047002.2,N
1625406495.1,286047002.4,N
1625406496.0,286047002.4,N
1625406515.8,286047002.0,N
1625406535.6,286047002.8,N
1625406555.5,286046999.7,N
1625406575.3,286047002.4,N
1625406595.2,286047002.3,N
1625406615.9,286047002.8,N
1625406635.7,286047001.8,N
1625406655.6,286047001.6,N
1625406675.4,286047002.7,N
1625406695.2,286047000.1,N
1625406715.1,286047000.6,N
1625406716.0,286047000.6,N
1625406735.8,286047002.2,N
1625406755.7,286047002.6,N
1625406775.5,286047001.1,N
1625406795.3,286047000.8,N
1625406815.2,286047000.4,N
1625406835.0,286047000.0,N
1625406835.9,286047000.0,N
1625406855.7,286047000.2,N
1625406875.6,286047000.1,N
1625406895.4,286047002.6,N
1625406915.3,286047002.6,N
1625406935.1,286047002.3,N
1625406936.0,286047002.3,N
1625406955.8,286047002.6,N
1625406975.7,286047004.3,Y
1625406995.5,286046999.7,P
1625407015.3,286047000.6,N
1625407035.2,286046998.6,N
1625407055.0,286047000.3,N
1625407055.9,286047000.3,N
1625407075.8,286047000.0,N
1625407095.6,286046999.8,N
1625407115.4,286047000.9,N
1625407135.3,286046999.9,N
1625407155.1,286046999.8,N
1625407175.8,286047002.1,N
1625407195.7,286046999.7,N
